This demonstration page uses our WeatherBlox Daily Observations layout. Learn more.

Left ArrowRight Arrow

Hourly Observations for July 4, 2021

Temp ( °F °C ) Dew Point ( °F °C ) Humidity (%) Winds ( mph kmh ) Pressure ( in mb ) Visibility ( mi km ) Precip ( " mm )
12:56 am 00:56 Clear 71 21.7 58 14.4 63 63 S 13 20 29.93 1014 10 16 0.00 0.00
1:56 am 01:56 Mostly Clear 69 20.6 58 14.4 68 68 S 9 15 29.94 1014 10 16 0.00 0.00
2:56 am 02:56 Clear 67 19.4 58 14.4 73 73 S 9 15 29.92 1013 10 16 0.00 0.00
3:56 am 03:56 Mostly Cloudy 68 20 58 14.4 70 70 S 8 13 29.91 1013 10 16 0.00 0.00
4:56 am 04:56 Mostly Clear 68 20 57 13.9 68 68 S 14 22 29.90 1013 10 16 0.00 0.00
5:56 am 05:56 Clear 67 19.4 58 14.4 73 73 S 12 19 29.89 1012 10 16 0.00 0.00
6:56 am 06:56 Sunny 67 19.4 58 14.4 73 73 S 12 19 29.90 1012 10 16 0.00 0.00
7:56 am 07:56 Sunny 69 20.6 61 16.1 76 76 SSW 12 19 29.91 1013 10 16 0.00 0.00
8:56 am 08:56 Sunny 72 22.2 63 17.2 73 73 SSW 10 17 29.92 1013 10 16 0.00 0.00
9:56 am 09:56 Sunny 77 25 66 18.9 69 69 SSW 16 26 29.92 1013 10 16 0.00 0.00
10:56 am 10:56 Sunny 79 26.1 68 20 69 69 SSW 13 20 29.91 1013 10 16 0.00 0.00
11:56 am 11:56 Sunny 83 28.3 70 21.1 65 65 S 13 20 29.90 1013 10 16 0.00 0.00
12:56 pm 12:56 Sunny 85 29.4 71 21.7 63 63 S 10 17 29.90 1013 10 16 0.00 0.00
1:56 pm 13:56 Mostly Sunny 87 30.6 71 21.7 59 59 SSW 13 20 29.89 1012 10 16 0.00 0.00
2:56 pm 14:56 Partly Cloudy 89 31.7 71 21.7 55 55 S 13 20 29.89 1012 10 16 0.00 0.00
3:56 pm 15:56 Mostly Sunny 90 32.2 70 21.1 52 52 SSE 12 19 29.88 1012 10 16 0.00 0.00
4:56 pm 16:56 Partly Cloudy 90 32.2 69 20.6 50 50 SSE 13 20 29.87 1012 10 16 0.00 0.00
5:56 pm 17:56 Sunny 89 31.7 70 21.1 53 53 SSE 9 15 29.87 1011 10 16 0.00 0.00
6:56 pm 18:56 Sunny 88 31.1 70 21.1 55 55 SSE 12 19 29.86 1011 10 16 0.00 0.00
7:56 pm 19:56 Sunny 86 30 70 21.1 59 59 SSE 8 13 29.88 1012 10 16 0.00 0.00
8:56 pm 20:56 Sunny 81 27.2 70 21.1 69 69 SSE 6 9 29.89 1012 10 16 0.00 0.00
9:56 pm 21:56 Clear 78 25.6 69 20.6 74 74 SSE 8 13 29.90 1013 10 16 0.00 0.00
10:56 pm 22:56 Clear 76 24.4 68 20 77 77 S 8 13 29.91 1013 10 16 0.00 0.00
11:56 pm 23:56 Clear 76 24.4 67 19.4 74 74 S 12 19 29.92 1013 10 16 0.00 0.00

Powered by AerisWeather